TimePDT,TemperatureF,Dew PointF,Humidity,Sea Level PressureIn,VisibilityMPH,Wind Direction,Wind SpeedMPH,Gust SpeedMPH,PrecipitationIn,Events,Conditions,WindDirDegrees,DateUTC
12:15 AM,28.4,23.0,80,30.32,10.0,Calm,Calm,-,N/A,,Clear,0,2013-03-24 07:15:00
12:35 AM,28.4,21.2,74,30.31,10.0,Calm,Calm,-,N/A,,Clear,0,2013-03-24 07:35:00
12:55 AM,28.4,21.2,74,30.31,10.0,Calm,Calm,-,N/A,,Clear,0,2013-03-24 07:55:00
1:15 AM,28.4,23.0,80,30.32,10.0,Calm,Calm,-,N/A,,Clear,0,2013-03-24 08:15:00
1:35 AM,28.4,23.0,80,30.32,10.0,Calm,Calm,-,N/A,,Clear,0,2013-03-24 08:35:00
1:55 AM,28.4,23.0,80,30.31,10.0,Calm,Calm,-,N/A,,Clear,0,2013-03-24 08:55:00
2:15 AM,19.4,19.4,100,30.31,10.0,Calm,Calm,-,N/A,,Clear,0,2013-03-24 09:15:00
2:35 AM,26.6,23.0,86,30.31,10.0,Calm,Calm,-,N/A,,Clear,0,2013-03-24 09:35:00
2:55 AM,26.6,21.2,80,30.31,10.0,Calm,Calm,-,N/A,,Clear,0,2013-03-24 09:55:00
3:15 AM,26.6,21.2,80,30.32,10.0,Calm,Calm,-,N/A,,Clear,0,2013-03-24 10:15:00
3:35 AM,26.6,21.2,80,30.32,10.0,Calm,Calm,-,N/A,,Clear,0,2013-03-24 10:35:00
3:55 AM,26.6,21.2,80,30.31,10.0,Calm,Calm,-,N/A,,Clear,0,2013-03-24 10:55:00
4:15 AM,24.8,21.2,86,30.29,10.0,Calm,Calm,-,N/A,,Clear,0,2013-03-24 11:15:00
4:35 AM,23.0,21.2,93,30.30,10.0,Calm,Calm,-,N/A,,Clear,0,2013-03-24 11:35:00
4:55 AM,24.8,21.2,86,30.31,10.0,Calm,Calm,-,N/A,,Clear,0,2013-03-24 11:55:00
5:15 AM,21.2,21.2,100,30.30,10.0,Calm,Calm,-,N/A,,Clear,0,2013-03-24 12:15:00
5:35 AM,19.4,19.4,100,30.29,10.0,Calm,Calm,-,N/A,,Clear,0,2013-03-24 12:35:00
5:55 AM,17.6,17.6,100,30.29,10.0,Calm,Calm,-,N/A,,Clear,0,2013-03-24 12:55:00
6:15 AM,19.4,19.4,100,30.29,10.0,Calm,Calm,-,N/A,,Clear,0,2013-03-24 13:15:00
6:35 AM,19.4,-9999,N/A,30.30,10.0,Calm,Calm,-,N/A,,Mostly Cloudy,0,2013-03-24 13:35:00
6:55 AM,19.4,19.4,100,30.30,10.0,Calm,Calm,-,N/A,,Partly Cloudy,0,2013-03-24 13:55:00
7:15 AM,19.4,19.4,100,30.29,10.0,Calm,Calm,-,N/A,,Clear,0,2013-03-24 14:15:00
7:35 AM,19.4,19.4,100,30.29,10.0,Calm,Calm,-,N/A,,Clear,0,2013-03-24 14:35:00
7:55 AM,23.0,23.0,100,30.29,10.0,Calm,Calm,-,N/A,,Clear,0,2013-03-24 14:55:00
8:15 AM,28.4,28.4,100,30.29,10.0,Calm,Calm,-,N/A,,Clear,0,2013-03-24 15:15:00
8:35 AM,35.6,28.4,75,30.28,10.0,Calm,Calm,-,N/A,,Clear,0,2013-03-24 15:35:00
8:55 AM,35.6,30.2,81,30.28,10.0,Calm,Calm,-,N/A,,Clear,0,2013-03-24 15:55:00
9:15 AM,37.4,30.2,75,30.28,10.0,Calm,Calm,-,N/A,,Clear,0,2013-03-24 16:15:00
9:35 AM,39.2,30.2,70,30.29,10.0,NE,3.5,-,N/A,,Clear,40,2013-03-24 16:35:00
9:55 AM,39.2,30.2,70,30.28,10.0,NE,3.5,-,N/A,,Clear,40,2013-03-24 16:55:00
10:15 AM,39.2,30.2,70,30.29,10.0,NNE,4.6,-,N/A,,Clear,20,2013-03-24 17:15:00
10:35 AM,39.2,30.2,70,30.29,10.0,ENE,4.6,-,N/A,,Partly Cloudy,60,2013-03-24 17:35:00
10:55 AM,41.0,28.4,61,30.28,10.0,NE,3.5,-,N/A,,Clear,40,2013-03-24 17:55:00
11:15 AM,42.8,28.4,57,30.28,10.0,NNE,5.8,-,N/A,,Clear,20,2013-03-24 18:15:00
11:35 AM,44.6,28.4,53,30.27,10.0,NNE,5.8,-,N/A,,Clear,30,2013-03-24 18:35:00
11:55 AM,44.6,28.4,53,30.26,10.0,NE,5.8,-,N/A,,Clear,50,2013-03-24 18:55:00
12:15 PM,44.6,26.6,49,30.27,10.0,NE,5.8,-,N/A,,Partly Cloudy,40,2013-03-24 19:15:00
12:35 PM,46.4,26.6,46,30.27,10.0,NE,5.8,-,N/A,,Clear,50,2013-03-24 19:35:00
12:55 PM,46.4,26.6,46,30.25,10.0,Calm,Calm,-,N/A,,Clear,0,2013-03-24 19:55:00
1:15 PM,48.2,26.6,43,30.26,10.0,North,3.5,-,N/A,,Clear,360,2013-03-24 20:15:00
1:35 PM,48.2,28.4,46,30.26,10.0,Calm,Calm,-,N/A,,Clear,0,2013-03-24 20:35:00
1:55 PM,48.2,26.6,43,30.26,10.0,Calm,Calm,-,N/A,,Clear,0,2013-03-24 20:55:00
2:15 PM,48.2,26.6,43,30.25,10.0,North,3.5,-,N/A,,Clear,360,2013-03-24 21:15:00
2:35 PM,50.0,26.6,40,30.24,10.0,Calm,Calm,-,N/A,,Clear,0,2013-03-24 21:35:00
2:55 PM,50.0,26.6,40,30.24,10.0,Calm,Calm,-,N/A,,Clear,0,2013-03-24 21:55:00
3:15 PM,51.8,26.6,38,30.23,10.0,Calm,Calm,-,N/A,,Clear,0,2013-03-24 22:15:00
3:35 PM,51.8,26.6,38,30.22,10.0,NNW,4.6,-,N/A,,Clear,330,2013-03-24 22:35:00
3:55 PM,51.8,28.4,41,30.21,10.0,NW,3.5,-,N/A,,Clear,320,2013-03-24 22:55:00
4:15 PM,51.8,26.6,38,30.20,10.0,WSW,3.5,-,N/A,,Clear,240,2013-03-24 23:15:00
4:35 PM,51.8,26.6,38,30.20,10.0,Calm,Calm,-,N/A,,Clear,0,2013-03-24 23:35:00
4:55 PM,51.8,26.6,38,30.20,10.0,Calm,Calm,-,N/A,,Clear,0,2013-03-24 23:55:00
5:15 PM,51.8,26.6,38,30.19,10.0,Calm,Calm,-,N/A,,Clear,0,2013-03-25 00:15:00
5:35 PM,53.6,26.6,35,30.18,10.0,West,3.5,-,N/A,,Clear,270,2013-03-25 00:35:00
5:55 PM,51.8,26.6,38,30.18,10.0,Calm,Calm,-,N/A,,Clear,0,2013-03-25 00:55:00
6:15 PM,51.8,26.6,38,30.18,10.0,WSW,3.5,-,N/A,,Partly Cloudy,250,2013-03-25 01:15:00
6:35 PM,51.8,26.6,38,30.17,10.0,WSW,5.8,-,N/A,,Partly Cloudy,240,2013-03-25 01:35:00
6:55 PM,48.2,26.6,43,30.16,10.0,WNW,3.5,-,N/A,,Mostly Cloudy,300,2013-03-25 01:55:00
7:15 PM,48.2,26.6,43,30.16,10.0,NW,3.5,-,N/A,,Overcast,320,2013-03-25 02:15:00
7:35 PM,46.4,26.6,46,30.16,10.0,West,3.5,-,N/A,,Scattered Clouds,280,2013-03-25 02:35:00
7:55 PM,42.8,26.6,53,30.16,10.0,Calm,Calm,-,N/A,,Scattered Clouds,0,2013-03-25 02:55:00
8:15 PM,39.2,28.4,65,30.15,10.0,Calm,Calm,-,N/A,,Mostly Cloudy,0,2013-03-25 03:15:00
8:35 PM,39.2,30.2,70,30.16,10.0,Calm,Calm,-,N/A,,Overcast,0,2013-03-25 03:35:00
8:55 PM,37.4,28.4,70,30.15,10.0,Calm,Calm,-,N/A,,Scattered Clouds,0,2013-03-25 03:55:00
9:15 PM,37.4,30.2,75,30.15,10.0,Calm,Calm,-,N/A,,Mostly Cloudy,0,2013-03-25 04:15:00
9:35 PM,37.4,28.4,70,30.16,10.0,Calm,Calm,-,N/A,,Overcast,0,2013-03-25 04:35:00
9:55 PM,35.6,28.4,75,30.15,10.0,Calm,Calm,-,N/A,,Mostly Cloudy,0,2013-03-25 04:55:00
10:15 PM,37.4,30.2,75,30.16,10.0,Calm,Calm,-,N/A,,Overcast,0,2013-03-25 05:15:00
10:35 PM,37.4,28.4,70,30.15,10.0,Calm,Calm,-,N/A,,Overcast,0,2013-03-25 05:35:00
10:55 PM,39.2,28.4,65,30.16,10.0,Calm,Calm,-,N/A,,Overcast,0,2013-03-25 05:55:00
11:15 PM,37.4,30.2,75,30.15,10.0,Calm,Calm,-,N/A,,Overcast,0,2013-03-25 06:15:00
11:35 PM,37.4,28.4,70,30.16,10.0,Calm,Calm,-,N/A,,Overcast,0,2013-03-25 06:35:00
11:55 PM,37.4,28.4,70,30.15,10.0,Calm,Calm,-,N/A,,Mostly Cloudy,0,2013-03-25 06:55:00